Regional Weather Roundup
Issued by NWS

Home | Current Version | Previous Version | Text Only | Print | Product List | Glossary Off
Versions: 1 2 3 4 5 6 7 8 9 10 11 12 13 14 15 16 17 18 19 20 21 22 23 24 25 26 27 28 29 30 31 32 33 34 35 36 37 38 39 40 41 42 43 44 45 46 47 48 49 50

000
ASUS43 KMPX 021310
RWRMN
WEATHER ROUNDUP FOR MINNESOTA
NATIONAL WEATHER SERVICE TWIN CITIES/CHANHASSEN MN
700 AM CST FRI DEC 02 2016


NOTE: "FAIR" INDICATES FEW OR NO CLOUDS BELOW 12,000 FEET WITH NO
SIGNIFICANT WEATHER AND/OR OBSTRUCTIONS TO VISIBILITY. N/A MEANS
CURRENT SKY AND/OR WEATHER CONDITIONS ARE NOT AVAILABLE.

MNZ060>063-068>070-021400-
   Twin Cities Metro

CITY           SKY/WX    TMP DP  RH WIND       PRES   REMARKS
TWIN CITIES    CLOUDY    31  21  66 NW7       30.16R WCI  24
ST PAUL        CLOUDY    31  22  69 NW10      30.18R WCI  22
CRYSTAL        CLOUDY    31  20  63 W6        30.15R WCI  25
BLAINE         CLOUDY    32  25  74 W5        30.15R WCI  27
LAKEVILLE      CLOUDY    28  25  86 W8        30.15S WCI  20
EDEN PRAIRIE   CLOUDY    32  21  64 NW10      30.15R WCI  24
SOUTH ST PAUL  CLOUDY    32  22  67 NW5       30.16R WCI  27
LAKE ELMO      CLOUDY    32  25  74 CALM      30.16R
$$
MNZ001>005-007-008-013>017-022>024-027-028-021400-
   Northwest Minnesota

CITY           SKY/WX    TMP DP  RH WIND       PRES   REMARKS
BEMIDJI        CLOUDY    22  20  90 NW8       30.16R WCI  13
HALLOCK        CLOUDY    28  25  86 N8        30.20S WCI  20
ROSEAU         CLOUDY    25  19  80 N5        30.18R WCI  19
WARROAD        CLOUDY    23  19  86 NW5       30.18R WCI  17
THIEF RVR FALL CLOUDY    24  19  81 N8        30.20R WCI  15
CROOKSTON      CLOUDY    27  21  80 N10       30.22R WCI  17
FOSSTON        CLOUDY    23  19  86 NW5       30.18R WCI  17
DETROIT LAKES  CLOUDY    27  23  86 N9        30.18R WCI  17
MOORHEAD       CLOUDY    27  21  80 N10       30.22R WCI  17
PARK RAPIDS    CLOUDY    24  17  74 NW6       30.15R WCI  17
$$
MNZ006-009>011-018-025>026-021400-
   North Central Minnesota

CITY           SKY/WX    TMP DP  RH WIND       PRES   REMARKS
BAUDETTE       CLOUDY    21  19  92 W8        30.16R WCI  11
FLAG ISLAND    CLOUDY    19  18  93 N8        30.17R WCI   9
INTL FALLS     CLOUDY    25  22  88 NW7       30.14R WCI  17
WASKISH        CLOUDY    21  19  93 W6        30.17R WCI  14
BIG FORK       CLOUDY    27  21  80 NW3       30.13S
LONGVILLE      CLOUDY    25  21  86 NW6       30.14R WCI  18
GRAND RAPIDS   CLOUDY    25  22  88 NW10      30.14R WCI  15
CRANE LAKE     CLOUDY    21  21 100 N3        30.15R
ORR            CLOUDY    25  19  80 CALM      30.10R
COOK           CLOUDY    25  21  86 NW6       30.13R WCI  18
$$
MNZ012-019>021-037-021400-
   Northeast Minnesota

CITY           SKY/WX    TMP DP  RH WIND       PRES   REMARKS
DULUTH         CLOUDY    27  22  81 N13       30.09R WCI  16
ELY            CLOUDY    21  21 100 N7        30.11R WCI  13
HIBBING        CLOUDY    24  20  84 N8        30.11R WCI  15
EVELETH        CLOUDY    26  22  84 N5        30.12R WCI  20
DULUTH HARBOR  CLOUDY    30  25  80 NW9       30.14R WCI  22
TWO HARBORS    PTCLDY    28  23  80 NW6       30.08R WCI  22
SILVER BAY     PTCLDY    25  21  86 NW3       30.07R
GRAND MARAIS     N/A     30  23  75 VRB6      30.07S WCI  24
G MARAIS ARPRT CLOUDY    21  18  86 NW5       30.03R WCI  15
$$
MNZ029>031-032-039>041-046>048-054>057-064-021400-
   West Central Minnesota

CITY           SKY/WX    TMP DP  RH WIND       PRES   REMARKS
FERGUS FALLS   CLOUDY    27  19  74 N6        30.23R WCI  20
WHEATON        CLOUDY   N/A N/A N/A NW7       30.22S
MORRIS         CLOUDY    27  23  86 N9        30.19R WCI  17
ALEXANDRIA     CLOUDY    25  20  81 NW9       30.17R WCI  15
ELBOW LAKE     CLOUDY    26  22  85 NE9       30.19R WCI  17
WADENA         CLOUDY    25  19  80 NW5       30.16R WCI  19
GLENWOOD       CLOUDY    27  21  80 W5        30.17R WCI  21
APPLETON       CLOUDY    30  23  74 N10       30.20R WCI  21
BENSON         CLOUDY    28  21  74 N6        30.19R WCI  22
ORTONVILLE     CLOUDY    28  21  74 CALM      30.20R
MADISON        MIX PCPN  30  28  93 N9        30.21R WCI  22
WILLMAR        CLOUDY    28  25  86 NW9       30.19S WCI  20
$$
MNZ033>034-036-042>043-049>051-058-059-021400-
   Central Minnesota

CITY           SKY/WX    TMP DP  RH WIND       PRES   REMARKS
ST CLOUD       CLOUDY    29  23  78 NW8       30.16R WCI  21
PAYNESVILLE    CLOUDY    28  23  79 NW5       30.18R WCI  23
AITKIN         CLOUDY    28  21  74 NW5       30.13R WCI  23
PINE RIVER     CLOUDY    25  19  80 NW7       30.18R WCI  17
BRAINERD       CLOUDY    25  20  81 NW9       30.16R WCI  15
STAPLES        CLOUDY    25  19  80 N7        30.16R WCI  17
LONG PRAIRIE   CLOUDY    27  21  80 SW5       30.17R WCI  21
LITTLE FALLS   CLOUDY    28  21  74 NW7       30.17R WCI  21
LITCHFIELD     CLOUDY    30  23  74 NW6       30.17R WCI  24
BUFFALO        CLOUDY    30  22  72 W7        30.18R WCI  23
MAPLE LAKE     CLOUDY    31  24  77 W5        30.17R WCI  26
$$
MNZ037-044-045-052-053-021400-
   East Central Minnesota

CITY           SKY/WX    TMP DP  RH WIND       PRES   REMARKS
PRINCETON      CLOUDY    30  25  80 NW6       30.16R WCI  24
MORA           CLOUDY    30  25  80 NW3       30.16R
CAMBRIDGE      CLOUDY    32  23  69 W5        30.14R WCI  27
RUSH CITY      CLOUDY    30  23  74 CALM      30.15R
MOOSE LAKE     CLOUDY    28  23  80 NW5       30.12R WCI  23
HINCKLEY       CLOUDY    30  27  86 NW5       30.14R WCI  25
CLOQUET        CLOUDY    27  21  80 NW9       30.11R WCI  17
MCGREGOR       CLOUDY    28  23  80 NW7       30.14R WCI  21
$$
MNZ071>073-080-081-089-090-097-098-021400-
   Southwest Minnesota

CITY           SKY/WX    TMP DP  RH WIND       PRES   REMARKS
MONTEVIDEO     CLOUDY    28  27  93 N7        30.21R WCI  21
GRANITE FALLS  CLOUDY    31  26  81 NW10      30.21R WCI  23
CANBY          CLOUDY    30  26  86 NW5       30.21R WCI  25
MARSHALL       CLOUDY    28  25  88 NW9       30.20R WCI  19
REDWOOD FALLS  CLOUDY    30  21  69 NW7       30.19R WCI  23
OLIVIA         MOCLDY    30  23  74 NW9       30.18R WCI  22
PIPESTONE      CLOUDY    28  25  86 CALM      30.16R
WINDOM         CLOUDY    30  27  86 CALM      30.17R
WORTHINGTON    CLOUDY    29  26  89 NW9       30.18R WCI  20
JACKSON        CLOUDY    30  27  86 NW8       30.17R WCI  23
TRACY          CLOUDY    30  27  88 NW10      30.19R WCI  21
SLAYTON        CLOUDY    27  25  93 NW10      30.18R WCI  17
$$
MNZ065>067-074>077-082>085-091>093-021400-
   South Central Minnesota

CITY           SKY/WX    TMP DP  RH WIND       PRES   REMARKS
MANKATO        CLOUDY    30  23  75 NW10      30.18R WCI  21
NEW ULM        CLOUDY    30  23  74 NW14      30.18R WCI  20
ST JAMES       CLOUDY    30  27  86 NW15      30.19R WCI  19
FAIRMONT       CLOUDY    31  27  85 N12       30.18R WCI  22
GLENCOE        CLOUDY    31  26  80 NW9       30.17R WCI  23
FARIBAULT      CLOUDY    30  25  80 NW7       30.16R WCI  23
OWATONNA       CLOUDY    30  23  74 NW12G17   30.16R WCI  21
WASECA         CLOUDY    32  27  80 NW12      30.18R WCI  23
ALBERT LEA     CLOUDY    34  27  75 NW8       30.16R WCI  27
$$
MNZ078>079-086>088-094>096-021400-
   Southeast Minnesota

CITY           SKY/WX    TMP DP  RH WIND       PRES   REMARKS
ROCHESTER      CLOUDY    31  25  78 NW8       30.13R WCI  23
RED WING       CLOUDY    32  21  64 NW5       30.15R WCI  27
STANTON        CLOUDY    32  24  71 NW6       30.15R WCI  26
DODGE CENTER   CLOUDY    30  23  74 NW9       30.14R WCI  22
WINONA         CLOUDY    32  25  74 NW5       30.16R WCI  27
AUSTIN         CLOUDY    30  23  74 NW7       30.14R WCI  23
PRESTON        CLOUDY    30  24  79 N5        30.13R WCI  25
$$
ABBREVIATIONS USED IN REMARKS
   TC - TEMPERATURES IN CELSIUS
  WCI - WIND CHILL INDEX
   HX - HEAT INDEX
  VSB - VISIBILITY
$$




USA.gov is the U.S. government's official web portal to all federal, state and local government web resources and services.